Weather History for KSTE - September, 2011

Change the Weather History Date:

Friday, September 16, 2011

  Actual Average Record
Temperature  
Mean Temperature 46 °F -  
Max Temperature 57 °F 67 °F 95 °F (1948)
Min Temperature 35 °F 46 °F 30 °F (2014)
Degree Days  
Heating Degree Days 19    
Moisture  
Dew Point 35 °F    
Average Humidity 68    
Maximum Humidity 93    
Minimum Humidity 36    
Precipitation  
Precipitation 0.00 in - - ()
Sea Level Pressure  
Sea Level Pressure 30.34 in    
Wind  
Wind Speed 1 mph (South)    
Max Wind Speed 8 mph    
Max Gust Speed -    
Visibility 10 miles    
Events      
Averages and records for this station are not official NWS values.
T = Trace of Precipitation, MM = Missing Value Source: NWS Daily Summary

Daily Weather History Graph

Daily Weather History Graph

Search for Another Location

Airport or City:

Trip Planner

Search our weather history database for the weather conditions in past years. The results will help you decide how hot, cold, wet, or windy it might be!

Date:

Astronomy

Sep. 16, 2011 Rise Set
Actual Time 6:37 AM CDT 7:07 PM CDT
Civil Twilight 6:08 AM CDT 7:36 PM CDT
Nautical Twilight 5:34 AM CDT 8:11 PM CDT
Astronomical Twilight 4:58 AM CDT 8:46 PM CDT
Moon 8:44 PM CDT (9/16) 10:56 AM CDT (9/16)
Length of Visible Light 13h 27m
Length of Day
12h 29m
Waning Gibbous, 84% of the Moon is Illuminated
Sep 16
Waning Gibbous
Sep 20
Last Quarter
Sep 27
New
Oct 3
First Quarter
Oct 11
Full

Hourly Weather History & Observations

Time (CDT) Temp. Dew Point Humidity Pressure Visibility Wind Dir Wind Speed Gust Speed Precip Events Conditions
12:15 AM 35.6 °F 33.8 °F 93% 30.35 in 10.0 mi Calm Calm - N/A   Clear
12:35 AM 35.6 °F 33.8 °F 93% 30.35 in 10.0 mi Calm Calm - N/A   Clear
12:55 AM 37.4 °F 33.8 °F 87% 30.35 in 10.0 mi Calm Calm - N/A   Clear
1:15 AM 35.6 °F 33.8 °F 93% 30.35 in 10.0 mi Calm Calm - N/A   Clear
1:35 AM 35.6 °F 33.8 °F 93% 30.35 in 10.0 mi Calm Calm - N/A   Clear
1:55 AM 35.6 °F 33.8 °F 93% 30.35 in 10.0 mi Calm Calm - N/A   Clear
2:15 AM 35.6 °F 33.8 °F 93% 30.35 in 10.0 mi Calm Calm - N/A   Clear
2:35 AM 35.6 °F 33.8 °F 93% 30.35 in 10.0 mi Calm Calm - N/A   Clear
2:55 AM 35.6 °F 32.0 °F 87% 30.35 in 10.0 mi Calm Calm - N/A   Clear
3:15 AM 35.6 °F 33.8 °F 93% 30.35 in 10.0 mi Calm Calm - N/A   Clear
3:35 AM 35.6 °F 33.8 °F 93% 30.35 in 10.0 mi Calm Calm - N/A   Clear
4:15 AM 35.6 °F 33.8 °F 93% 30.35 in 10.0 mi Calm Calm - N/A   Clear
4:35 AM 35.6 °F 33.8 °F 93% 30.35 in 10.0 mi Calm Calm - N/A   Clear
4:55 AM 35.6 °F 33.8 °F 93% 30.36 in 10.0 mi Calm Calm - N/A   Clear
5:15 AM 35.6 °F 33.8 °F 93% 30.36 in 10.0 mi Calm Calm - N/A   Clear
5:35 AM 35.6 °F 33.8 °F 93% 30.36 in 10.0 mi Calm Calm - N/A   Clear
5:55 AM 35.6 °F 33.8 °F 93% 30.36 in 10.0 mi Calm Calm - N/A   Clear
6:15 AM 35.6 °F 33.8 °F 93% 30.36 in 10.0 mi Calm Calm - N/A   Clear
6:35 AM 35.6 °F 33.8 °F 93% 30.37 in 10.0 mi Calm Calm - N/A   Clear
6:55 AM 35.6 °F 33.8 °F 93% 30.37 in 10.0 mi Calm Calm - N/A   Clear
7:35 AM 37.4 °F 35.6 °F 93% 30.38 in 10.0 mi Calm Calm - N/A   Clear
8:15 AM 42.8 °F 37.4 °F 81% 30.38 in 10.0 mi Calm Calm - N/A   Clear
8:35 AM 44.6 °F 37.4 °F 76% 30.38 in 10.0 mi Calm Calm - N/A   Clear
8:55 AM 46.4 °F 37.4 °F 71% 30.38 in 10.0 mi Calm Calm - N/A   Clear
9:35 AM 51.8 °F 35.6 °F 54% 30.38 in 10.0 mi SSE 4.6 mph - N/A   Clear
9:55 AM 51.8 °F 35.6 °F 54% 30.38 in 10.0 mi South 3.5 mph - N/A   Clear
10:15 AM 53.6 °F 35.6 °F 51% 30.38 in 10.0 mi South 3.5 mph - N/A   Clear
10:35 AM 53.6 °F 33.8 °F 47% 30.38 in 10.0 mi South 4.6 mph - N/A   Clear
10:55 AM 53.6 °F 33.8 °F 47% 30.38 in 10.0 mi SSW 4.6 mph - N/A   Clear
11:15 AM 53.6 °F 33.8 °F 47% 30.38 in 10.0 mi Calm Calm - N/A   Clear
11:35 AM 55.4 °F 33.8 °F 44% 30.37 in 10.0 mi SSW 4.6 mph - N/A   Clear
11:55 AM 55.4 °F 32.0 °F 41% 30.37 in 10.0 mi SSW 5.8 mph - N/A   Clear
12:15 PM 55.4 °F 32.0 °F 41% 30.37 in 10.0 mi South 5.8 mph - N/A   Scattered Clouds
12:35 PM 55.4 °F 32.0 °F 41% 30.36 in 10.0 mi SSW 8.1 mph - N/A   Scattered Clouds
1:15 PM 55.4 °F 30.2 °F 38% 30.36 in 10.0 mi SW 3.5 mph - N/A   Clear
1:35 PM 57.2 °F 32.0 °F 38% 30.35 in 10.0 mi SSW 8.1 mph - N/A   Clear
1:55 PM 57.2 °F 32.0 °F 38% 30.34 in 10.0 mi SSW 6.9 mph - N/A   Clear
2:15 PM 57.2 °F 30.2 °F 36% 30.34 in 10.0 mi SW 6.9 mph - N/A   Clear
2:35 PM 55.4 °F 30.2 °F 38% 30.33 in 10.0 mi SSE 3.5 mph - N/A   Clear
2:55 PM 57.2 °F 32.0 °F 38% 30.32 in 10.0 mi South 4.6 mph - N/A   Clear
3:15 PM 57.2 °F 33.8 °F 41% 30.32 in 10.0 mi SW 3.5 mph - N/A   Clear
3:35 PM 57.2 °F 33.8 °F 41% 30.32 in 10.0 mi South 4.6 mph - N/A   Scattered Clouds
3:55 PM 57.2 °F 33.8 °F 41% 30.31 in 10.0 mi South 3.5 mph - N/A   Scattered Clouds
4:15 PM 57.2 °F 32.0 °F 38% 30.31 in 10.0 mi SSW 6.9 mph - N/A   Clear
4:35 PM 57.2 °F 33.8 °F 41% 30.31 in 10.0 mi South 6.9 mph - N/A   Clear
4:55 PM 57.2 °F 33.8 °F 41% 30.31 in 10.0 mi South 4.6 mph - N/A   Clear
5:15 PM 57.2 °F 33.8 °F 41% 30.31 in 10.0 mi South 8.1 mph - N/A   Scattered Clouds
5:35 PM 55.4 °F 33.8 °F 44% 30.31 in 10.0 mi South 5.8 mph - N/A   Scattered Clouds
5:55 PM 57.2 °F 33.8 °F 41% 30.30 in 10.0 mi South 5.8 mph - N/A   Mostly Cloudy
6:15 PM 55.4 °F 33.8 °F 44% 30.30 in 10.0 mi Calm Calm - N/A   Overcast
6:55 PM 53.6 °F 35.6 °F 51% 30.30 in 10.0 mi Calm Calm - N/A   Overcast
7:35 PM 51.8 °F 37.4 °F 58% 30.29 in 10.0 mi ESE 3.5 mph - N/A   Overcast
7:55 PM 50.0 °F 39.2 °F 66% 30.30 in 10.0 mi ESE 3.5 mph - N/A   Overcast
8:15 PM 50.0 °F 39.2 °F 66% 30.30 in 10.0 mi Calm Calm - N/A   Overcast
8:35 PM 50.0 °F 39.2 °F 66% 30.30 in 10.0 mi Calm Calm - N/A   Overcast
8:55 PM 48.2 °F 41.0 °F 76% 30.31 in 10.0 mi Calm Calm - N/A   Overcast
9:15 PM 48.2 °F 41.0 °F 76% 30.30 in 10.0 mi Calm Calm - N/A   Overcast
9:35 PM 46.4 °F 41.0 °F 81% 30.31 in 10.0 mi Calm Calm - N/A   Mostly Cloudy
9:55 PM 44.6 °F 41.0 °F 87% 30.31 in 10.0 mi Calm Calm - N/A   Scattered Clouds
10:15 PM 42.8 °F 39.2 °F 87% 30.32 in 10.0 mi Calm Calm - N/A   Mostly Cloudy
10:35 PM 44.6 °F 39.2 °F 81% 30.32 in 10.0 mi Calm Calm - N/A   Overcast
10:55 PM 44.6 °F 39.2 °F 81% 30.32 in 10.0 mi Calm Calm - N/A   Scattered Clouds
11:15 PM 42.8 °F 39.2 °F 87% 30.32 in 10.0 mi Calm Calm - N/A   Clear
11:35 PM 42.8 °F 39.2 °F 87% 30.32 in 10.0 mi Calm Calm - N/A   Mostly Cloudy
11:55 PM 39.2 °F 37.4 °F 93% 30.31 in 10.0 mi Calm Calm - N/A   Overcast